NA9VY-8 Weather Reports


Display with metric or nautical units.
time (UTC)temp
F
wind
direction
speed
MPH
gust
MPH
rain 1hr
in
rain 24hr
in
rain mn
in
humidity
%
barometer
mb
20260503225515 62 189 6.0 11.0 0.00 0.00 0.00 51 1015.8
20260503225009 62 189 4.0 7.0 0.00 0.00 0.00 52 1016.0
20260503224508 62 159 2.0 5.0 0.00 0.00 0.00 50 1015.9
20260503224005 62 194 6.0 14.0 0.00 0.00 0.00 49 1015.5
20260503223503 62 146 3.0 12.0 0.00 0.00 0.00 52 1016.0
20260503222958 62 134 4.0 8.0 0.00 0.00 0.00 51 1016.2
20260503222457 62 140 3.0 14.0 0.00 0.00 0.00 49 1016.4
20260503221954 62 192 4.0 11.0 0.00 0.00 0.00 49 1016.8
20260503221452 62 225 0.0 13.0 0.00 0.00 0.00 48 1017.2
20260503220949 62 137 4.0 8.0 0.00 0.00 0.00 49 1017.3
20260503220445 62 180 1.0 10.0 0.00 0.00 0.00 51 1017.2
20260503215942 62 201 6.0 14.0 0.00 0.00 0.00 48 1017.3
20260503215439 62 150 7.0 12.0 0.00 0.00 0.00 48 1017.0
20260503214937 62 134 0.0 8.0 0.00 0.00 0.00 49 1017.3
20260503214435 62 147 6.0 8.0 0.00 0.00 0.00 48 1017.4
20260503213932 62 157 4.0 13.0 0.00 0.00 0.00 48 1017.5
20260503213430 62 146 6.0 11.0 0.00 0.00 0.00 48 1017.5
20260503212926 62 157 4.0 9.0 0.00 0.00 0.00 47 1017.8
20260503212423 61 192 4.0 16.0 0.00 0.00 0.00 50 1017.8
20260503211921 62 124 4.0 13.0 0.00 0.00 0.00 47 1018.1
20260503211417 62 242 7.0 13.0 0.00 0.00 0.00 47 1018.3
20260503210913 62 151 3.0 11.0 0.00 0.00 0.00 49 1018.4
20260503210410 62 53 4.0 15.0 0.00 0.00 0.00 49 1018.6
20260503205910 62 198 5.0 7.0 0.00 0.00 0.00 46 1019.1
20260503205408 62 155 6.0 8.0 0.00 0.00 0.00 45 1019.1
20260503204904 63 220 3.0 14.0 0.00 0.00 0.00 44 1019.0
20260503204401 64 154 3.0 15.0 0.00 0.00 0.00 43 1019.2
20260503203858 64 261 3.0 11.0 0.00 0.00 0.00 45 1019.2
20260503203355 64 228 4.0 7.0 0.00 0.00 0.00 44 1019.0
20260503202852 64 282 5.0 13.0 0.00 0.00 0.00 42 1019.0
20260503202350 64 22 5.0 10.0 0.00 0.00 0.00 43 1018.7
20260503201849 63 207 9.0 19.0 0.00 0.00 0.00 50 1019.1
20260503201345 63 194 4.0 11.0 0.00 0.00 0.00 45 1019.0
20260503200843 63 151 5.0 15.0 0.00 0.00 0.00 44 1019.1
20260503200338 62 143 4.0 11.0 0.00 0.00 0.00 45 1019.4
20260503195836 62 141 21.0 21.0 0.00 0.00 0.00 44 1019.4
20260503195332 62 172 5.0 16.0 0.00 0.00 0.00 45 1019.5
20260503194830 62 148 9.0 22.0 0.00 0.00 0.00 46 1019.4
20260503194325 62 226 11.0 14.0 0.00 0.00 0.00 45 1019.7
20260503193822 62 129 3.0 13.0 0.00 0.00 0.00 46 1019.7
20260503193318 62 135 3.0 24.0 0.00 0.00 0.00 47 1019.6
20260503192814 61 145 10.0 21.0 0.00 0.00 0.00 46 1019.8
20260503192309 62 157 10.0 20.0 0.00 0.00 0.00 47 1020.0
20260503191806 62 154 11.0 20.0 0.00 0.00 0.00 47 1020.1
20260503191303 63 45 3.0 13.0 0.00 0.00 0.00 48 1020.3
20260503190800 63 43 4.0 8.0 0.00 0.00 0.00 49 1020.4
20260503190257 63 133 3.0 9.0 0.00 0.00 0.00 47 1020.4
20260503185754 63 238 8.0 10.0 0.00 0.00 0.00 48 1020.6
20260503185249 62 141 8.0 11.0 0.00 0.00 0.00 43 1020.8
20260503184744 61 216 5.0 23.0 0.00 0.00 0.00 46 1020.8
20260503184241 62 79 3.0 11.0 0.00 0.00 0.00 48 1021.3
20260503183737 62 178 4.0 20.0 0.00 0.00 0.00 46 1021.5
20260503183235 61 197 2.0 12.0 0.00 0.00 0.00 47 1021.2
20260503182732 62 101 3.0 12.0 0.00 0.00 0.00 45 1021.6
20260503182231 60 156 9.0 13.0 0.00 0.00 0.00 45 1021.6
20260503181727 62 264 7.0 9.0 0.00 0.00 0.00 43 1021.9
20260503181224 61 221 7.0 11.0 0.00 0.00 0.00 42 1021.8
20260503180720 61 152 10.0 16.0 0.00 0.00 0.00 41 1022.1
20260503180219 61 249 0.0 11.0 0.00 0.00 0.00 44 1022.3
20260503175715 60 188 7.0 16.0 0.00 0.00 0.00 42 1022.5
20260503175213 61 201 9.0 20.0 0.00 0.00 0.00 42 1022.6
20260503174709 61 192 12.0 14.0 0.00 0.00 0.00 41 1022.6
20260503174207 61 240 4.0 9.0 0.00 0.00 0.00 42 1022.6
20260503173702 60 196 8.0 14.0 0.00 0.00 0.00 41 1022.7
20260503173158 60 42 5.0 12.0 0.00 0.00 0.00 45 1022.7
20260503172655 60 151 5.0 9.0 0.00 0.00 0.00 46 1022.7
20260503172153 59 96 6.0 14.0 0.00 0.00 0.00 42 1022.7
20260503171649 61 202 6.0 12.0 0.00 0.00 0.00 42 1023.1
20260503171147 59 241 9.0 19.0 0.00 0.00 0.00 39 1023.3
20260503170643 60 163 2.0 12.0 0.00 0.00 0.00 40 1023.5
20260503170140 60 172 0.0 10.0 0.00 0.00 0.00 43 1023.3
20260503150531 58 176 4.0 9.0 0.00 0.00 0.00 49 1026.1
20260503130926 50 234 3.0 13.0 0.00 0.00 0.00 58 1027.5
20260503130424 50 97 3.0 9.0 0.00 0.00 0.00 60 1027.7
20260503110823 37 180 1.0 5.0 0.00 0.00 0.00 86 1027.3
20260503110320 36 120 5.0 5.0 0.00 0.00 0.00 89 1027.1
20260503100246 33 48 2.0 3.0 0.00 0.00 0.00 97 1027.0
20260503090206 31 35 0.0 2.0 0.00 0.00 0.00 99 1026.8
20260503081138 31 35 0.0 1.0 0.00 0.00 0.00 99 1026.3
20260503080634 31 23 0.0 1.0 0.00 0.00 0.00 99 1026.5
20260503080132 31 36 2.0 3.0 0.00 0.00 0.00 99 1026.3
20260503072608 31 66 0.0 0.0 0.00 0.00 0.00 98 1026.1
20260503072106 31 66 0.0 2.0 0.00 0.00 0.00 98 1026.1
20260503071602 31 55 2.0 2.0 0.00 0.00 0.00 98 1026.3
20260503071059 31 52 2.0 2.0 0.00 0.00 0.00 98 1026.1
20260503070555 31 66 1.0 1.0 0.00 0.00 0.00 98 1026.2
20260503055015 32 20 0.0 2.0 0.00 0.00 0.00 97 1026.2
20260503054510 32 53 2.0 2.0 0.00 0.00 0.00 97 1026.0
20260503054008 33 37 2.0 2.0 0.00 0.00 0.00 97 1026.2
20260503053506 33 45 1.0 2.0 0.00 0.00 0.00 97 1026.1
20260503053002 33 15 0.0 0.0 0.00 0.00 0.00 97 1026.1
20260503052500 32 90 0.0 1.0 0.00 0.00 0.00 97 1026.2
20260503051956 32 74 0.0 2.0 0.00 0.00 0.00 97 1026.0
20260503051452 33 83 1.0 1.0 0.00 0.00 0.00 97 1026.0
20260503050949 33 74 0.0 1.0 0.00 0.00 0.00 97 1026.2
20260503050445 33 77 1.0 2.0 0.00 0.00 0.00 96 1026.2
20260503045943 33 69 0.0 2.0 0.00 0.00 0.00 96 1026.1
20260503045440 34 63 1.0 2.0 0.00 0.00 0.00 96 1026.0
20260503044937 34 55 2.0 2.0 0.00 0.00 0.00 96 1026.0
20260503044433 34 19 2.0 2.0 0.00 0.00 0.00 96 1026.0
20260503043931 34 60 0.0 1.0 0.00 0.00 0.00 96 1025.8
20260503043427 34 41 2.0 3.0 0.00 0.00 0.00 95 1025.8
20260503042924 34 60 1.0 1.0 0.00 0.00 0.00 95 1025.7
20260503042421 34 60 0.0 1.0 0.00 0.00 0.00 95 1025.6
20260503041917 34 60 1.0 1.0 0.00 0.00 0.00 95 1025.5
20260503041414 35 60 0.0 1.0 0.00 0.00 0.00 95 1025.5
20260503040911 35 60 0.0 2.0 0.00 0.00 0.00 95 1025.4
20260503040409 35 74 0.0 1.0 0.00 0.00 0.00 94 1025.3
20260503035906 35 75 0.0 1.0 0.00 0.00 0.00 94 1025.4
20260503035403 35 66 1.0 2.0 0.00 0.00 0.00 94 1025.5
20260503034900 35 57 1.0 2.0 0.00 0.00 0.00 93 1025.3
20260503034358 35 41 0.0 3.0 0.00 0.00 0.00 93 1025.3
20260503033854 36 34 0.0 2.0 0.00 0.00 0.00 93 1025.4
20260503033352 36 35 1.0 1.0 0.00 0.00 0.00 93 1025.1
20260503032850 36 54 1.0 2.0 0.00 0.00 0.00 92 1025.3
20260503032349 36 49 1.0 1.0 0.00 0.00 0.00 92 1025.1
20260503031846 36 63 0.0 2.0 0.00 0.00 0.00 92 1025.2
20260503031343 37 35 0.0 2.0 0.00 0.00 0.00 91 1025.3
20260503030839 37 57 0.0 1.0 0.00 0.00 0.00 90 1025.1
20260503030336 37 60 0.0 1.0 0.00 0.00 0.00 89 1025.2
20260503025832 37 34 2.0 2.0 0.00 0.00 0.00 87 1025.2
20260503025330 37 75 0.0 0.0 0.00 0.00 0.00 87 1025.1
20260503024827 38 60 0.0 1.0 0.00 0.00 0.00 87 1025.0
20260503024324 38 73 0.0 0.0 0.00 0.00 0.00 87 1025.0
20260503023820 38 60 1.0 2.0 0.00 0.00 0.00 86 1024.7
20260503023318 38 69 0.0 2.0 0.00 0.00 0.00 85 1024.8
20260503022814 39 60 1.0 2.0 0.00 0.00 0.00 85 1024.9
20260503022314 39 40 0.0 2.0 0.00 0.00 0.00 84 1024.6
20260503021811 39 40 0.0 2.0 0.00 0.00 0.00 84 1024.5
20260503021308 39 63 2.0 2.0 0.00 0.00 0.00 84 1024.7
20260503020805 39 45 0.0 2.0 0.00 0.00 0.00 82 1024.6
20260503020303 40 29 0.0 1.0 0.00 0.00 0.00 81 1024.6
20260503015758 40 23 1.0 2.0 0.00 0.00 0.00 79 1024.3
20260503015256 40 28 0.0 2.0 0.00 0.00 0.00 79 1024.2
20260503014751 41 15 0.0 1.0 0.00 0.00 0.00 79 1024.0
20260503014249 41 45 2.0 2.0 0.00 0.00 0.00 77 1024.0
20260503013746 41 29 0.0 1.0 0.00 0.00 0.00 78 1023.9
20260503013244 42 32 1.0 2.0 0.00 0.00 0.00 77 1023.8
20260503012741 42 29 0.0 1.0 0.00 0.00 0.00 77 1023.8
20260503012238 43 29 2.0 2.0 0.00 0.00 0.00 77 1023.5
20260503011735 43 14 0.0 0.0 0.00 0.00 0.00 76 1023.7
20260503011232 44 331 0.0 2.0 0.00 0.00 0.00 71 1023.5
20260503010728 44 354 0.0 1.0 0.00 0.00 0.00 67 1023.3
20260503010225 45 28 2.0 3.0 0.00 0.00 0.00 65 1023.3
20260503005723 46 26 1.0 3.0 0.00 0.00 0.00 65 1023.2
20260503005220 47 33 2.0 2.0 0.00 0.00 0.00 62 1023.3
20260503004716 47 18 2.0 2.0 0.00 0.00 0.00 57 1023.2
20260503004214 48 351 2.0 3.0 0.00 0.00 0.00 55 1023.3
20260503003711 48 10 2.0 3.0 0.00 0.00 0.00 53 1023.2
20260503003208 49 332 3.0 3.0 0.00 0.00 0.00 50 1022.9
20260503002704 49 312 2.0 5.0 0.00 0.00 0.00 49 1022.9
20260503002201 50 339 3.0 4.0 0.00 0.00 0.00 51 1022.9
20260503001657 50 332 4.0 7.0 0.00 0.00 0.00 49 1022.8
20260503001154 50 359 5.0 11.0 0.00 0.00 0.00 47 1022.7
20260503000652 51 350 6.0 8.0 0.00 0.00 0.00 46 1022.6
20260503000149 51 16 3.0 4.0 0.00 0.00 0.00 47 1022.4
20260502235646 51 306 3.0 6.0 0.00 0.00 0.00 47 1022.7
20260502235144 52 334 3.0 12.0 0.00 0.00 0.00 44 1022.4
20260502234639 52 322 3.0 13.0 0.00 0.00 0.00 45 1022.3
20260502234137 52 0 3.0 5.0 0.00 0.00 0.00 48 1022.2
20260502233633 52 327 3.0 6.0 0.00 0.00 0.00 44 1022.2
20260502233130 52 357 2.0 6.0 0.00 0.00 0.00 44 1022.5
20260502232625 52 341 4.0 6.0 0.00 0.00 0.00 45 1022.3
20260502232123 52 270 1.0 7.0 0.00 0.00 0.00 46 1022.2
20260502231620 53 324 11.0 11.0 0.00 0.00 0.00 43 1022.2
20260502231118 53 323 5.0 10.0 0.00 0.00 0.00 44 1022.2
20260502230616 53 56 3.0 13.0 0.00 0.00 0.00 45 1022.2
20260502230114 53 330 3.0 11.0 0.00 0.00 0.00 43 1022.1
20260502225609 53 341 5.0 6.0 0.00 0.00 0.00 45 1022.1